Home   Weather   Bamako   Past weeks

Flag for Mali Past Weather in Bamako, Mali — Yesterday and Last 2 Weeks

Now
77 °F

Sunny.


Feels Like: 79 °F
Forecast: 77 / 96 °F
Wind: 5 mph from Southwest

Location: Bamako / Senou

Current Time: Apr 27, 2017 at 7:36:58 am

Latest Report: Apr 27, 2017 at 7:00 am


Visibility: 10 mi

Pressure: 29.92 "Hg

Humidity: 79%

Dew Point: 70 °F

Location of BamakoLocation

Past Weather in Bamako — Graph

°F

Bamako Temperature Yesterday

Maximum temperature yesterday: 95 °F (at 4:30 pm)
Minimum temperature yesterday: 77 °F (at 10:30 am)
Average temperature yesterday: 88 °F

High & Low Weather Summary for the Past Weeks

 TemperatureHumidityPressure
High108 °F (Apr 20, 4:00 pm)79% (Apr 18, 9:00 am)30.01 "Hg (Apr 18, 9:00 am)
Low73 °F (Apr 16, 3:00 am)5% (Apr 12, 5:00 pm)29.71 "Hg (Apr 20, 5:00 pm)
Average91 °F29%29.86 "Hg
* Reported Apr 12 6:00 am — Apr 27 6:00 am, Bamako, Weather by CustomWeather, © 2017

Note: Actual official high and low records may vary slightly from our data, if they occured in-between our weather recording intervals... More about our weather records

Advertising

Bamako Weather History for the Previous 24 Hours

Scroll right to see more
 ConditionsComfort  
Time TempWeatherWind HumidityBarometerVisibility
6:00 am
Thu, Apr 27
79 °FClear.5 mph70%29.89 "Hg10 mi
5:30 am79 °FClear.5 mph70%29.89 "Hg10 mi
5:00 am79 °FClear.5 mph70%29.86 "Hg10 mi
4:30 am77 °FClear.2 mph74%29.86 "Hg10 mi
3:30 am79 °FClear.2 mph74%29.86 "Hg10 mi
3:00 am81 °FClear.5 mph66%29.86 "Hg10 mi
2:30 am79 °FClear.5 mph70%29.89 "Hg10 mi
1:30 am79 °FClear.5 mph70%29.89 "Hg10 mi
1:00 am79 °FClear.No wind74%29.92 "Hg10 mi
12:30 am81 °FClear.No wind66%29.92 "Hg10 mi
12:00 am84 °FClear.5 mph58%29.92 "Hg10 mi
11:30 pm
Wed, Apr 26
84 °FClear.7 mph55%29.92 "Hg10 mi
11:00 pm84 °FClear.5 mph55%29.92 "Hg10 mi
10:30 pm86 °FClear.5 mph49%29.92 "Hg10 mi
10:00 pm86 °FClear.5 mph49%29.92 "Hg10 mi
9:30 pm86 °FClear.3 mph49%29.92 "Hg10 mi
9:00 pm88 °FClear.5 mph43%29.89 "Hg10 mi
8:30 pm88 °FClear.5 mph43%29.89 "Hg10 mi
8:00 pm90 °FClear.7 mph41%29.89 "Hg10 mi
7:30 pm90 °FClear.6 mph41%29.86 "Hg10 mi
7:00 pm91 °FClear.6 mph36%29.86 "Hg10 mi
6:30 pm93 °FSunny.7 mph34%29.86 "Hg10 mi
6:00 pm93 °FSunny.6 mph32%29.83 "Hg10 mi
5:30 pm95 °FSunny.7 mph30%29.83 "Hg10 mi
5:00 pm95 °FSunny.10 mph32%29.83 "Hg10 mi
4:30 pm95 °FSunny.8 mph30%29.83 "Hg10 mi
4:00 pm93 °FSunny.10 mph32%29.83 "Hg10 mi
3:30 pm93 °FSunny.12 mph36%29.83 "Hg10 mi
3:00 pm91 °FSunny.10 mph38%29.86 "Hg10 mi
2:30 pm90 °FSunny.12 mph43%29.86 "Hg10 mi
2:00 pm88 °FSunny.10 mph46%29.92 "Hg10 mi
1:30 pm88 °FPassing clouds.8 mph43%29.95 "HgN/A
1:00 pm86 °FPassing clouds.10 mph46%29.95 "HgN/A
12:30 pm84 °FPassing clouds.10 mph51%29.98 "HgN/A
12:00 pm82 °FPassing clouds.14 mph58%29.98 "HgN/A
11:30 am81 °FPassing clouds.14 mph66%29.98 "HgN/A
11:00 am79 °FPassing clouds.10 mph70%29.98 "HgN/A
10:30 am77 °FPassing clouds.15 mph79%29.98 "HgN/A
9:30 am81 °FLight rain. Passing clouds.12 mph74%30.01 "Hg5 mi
9:00 am81 °FPassing clouds.12 mph66%29.98 "HgN/A
8:30 am82 °FPassing clouds.13 mph55%29.98 "HgN/A
8:00 am84 °FLight rain. Passing clouds.20 mph48%29.95 "HgN/A
7:30 am84 °FLight rain. Passing clouds.14 mph51%29.92 "HgN/A
7:00 am84 °FLight rain. Passing clouds.7 mph55%29.86 "HgN/A
Weather by CustomWeather, © 2017

See weather overviewHow to use our weather pages